Location: Mezzavia
(45.3000°N, 11.8000°E)
Time: 22:19:18
(UTC+00:00)

Daily predictions for brighter satellites

Satellite Brightness Start Highest point End
(mag) Time Altitude Azimuth Time Altitude Azimuth Time Altitude Azimuth
NOSS 3-2 (A) 4.2 17:22:10 10° NW 17:29:34 64° NE 17:37:56 10° SE
Meteor 1-21 4.4 17:31:44 10° NNW 17:37:21 81° W 17:42:56 10° S
Cosmos 2151 Rocket 4.4 17:34:38 10° SSE 17:38:33 31° E 17:42:30 10° NNE
Lacrosse 5 rocket 3.6 17:36:45 10° NW 17:39:45 18° N 17:42:50 10° NE
Cosmos 1975 Rocket 3.2 17:36:19 10° N 17:40:39 79° W 17:44:57 10° S
HJ-1C 4.1 17:40:59 10° SE 17:43:57 32° ENE 17:46:57 10° N
COSMO-SKYMED 1 3.4 17:46:02 10° N 17:50:18 56° WNW 17:54:33 10° SSW
Shenzhou-11 Module 3.4 17:49:46 10° S 17:50:49 13° SSE 17:51:33 11° SE
Ariane Rocket 4.1 17:48:26 10° ESE 17:52:31 25° ENE 17:56:36 10° N
H-2A R/B 2.2 17:48:25 10° SE 17:53:15 52° ENE 17:58:14 10° N
Nadezhda 4 Rocket 4.2 17:47:35 10° N 17:53:27 46° ENE 17:59:18 10° SSE
SJ 16-02 4.3 17:52:54 10° W 17:55:22 15° NW 17:57:50 10° NNW
Exosat Rocket 4.1 17:52:32 10° S 17:57:28 35° ESE 18:01:59 10° NE
Cosmos 2263 Rocket 4.0 17:53:36 10° WSW 17:58:37 34° NW 18:03:42 10° N
USA 116 3.6 17:56:51 10° NNE 18:00:33 71° ESE 18:04:43 10° S
COSMOS 2406 4.4 17:57:56 10° N 18:02:30 24° NE 18:05:50 15° E
Cosmos 1844 Rocket 2.6 17:57:19 10° SSW 18:02:49 66° ESE 18:08:22 10° NNE
Cosmos 1072 Rocket 4.5 17:56:37 10° S 18:02:52 81° E 18:09:17 10° N
Cosmos 372 Rocket 4.4 17:59:28 10° SSW 18:04:41 69° WNW 18:09:55 10° NNE
Cosmos 1707 3.0 18:01:56 10° NNW 18:05:45 72° W 18:09:33 10° S
Cosmos 1626 3.8 18:04:50 10° NNE 18:07:09 16° ENE 18:07:28 16° ENE
Cosmos 2278 Rocket 4.1 18:09:59 11° ENE 18:09:59 11° ENE 18:10:20 10° ENE
NOSS 3-2 (C) 4.1 18:00:22 10° NW 18:07:50 70° NE 18:16:08 11° SE
CZ-2C R/B 3.6 18:07:00 10° SW 18:08:03 11° SSW 18:09:05 10° S
Cosmos 1844 3.7 18:04:40 10° S 18:10:16 61° ESE 18:15:49 10° NNE
Cosmos 2034 Rocket 4.0 18:04:10 10° S 18:10:24 62° E 18:16:38 10° NNE
NOSS 3-4 (A) 3.8 18:06:27 10° S 18:11:47 37° ESE 18:17:22 10° NE
NOSS 3-4 (C) 3.8 18:06:35 10° S 18:11:53 36° ESE 18:17:28 10° NE
ISS -2.3 18:08:51 10° W 18:11:58 33° NNW 18:14:49 12° NE
USA 186 2.8 18:11:04 21° ESE 18:12:19 28° ENE 18:15:12 10° N
Meteor 2-5 Rocket 4.3 18:08:24 10° N 18:13:39 37° ENE 18:18:15 13° SE
Meteor 1-12 Rocket 4.4 18:07:57 10° S 18:13:51 86° W 18:19:39 10° N
Lacrosse 4 Rocket 3.6 18:14:31 10° NNE 18:15:26 11° NE 18:16:21 10° NE
Cosmos 1300 Rocket 3.8 18:14:46 10° SSW 18:19:10 73° W 18:23:38 10° N
Okean 1 Rocket 3.5 18:18:11 10° SSE 18:22:23 41° E 18:26:37 10° NNE
Resurs 01 Rocket 3.4 18:25:52 15° ENE 18:25:55 15° ENE 18:28:30 10° NNE
Cosmos 2298 Rocket 4.4 18:20:40 10° SSW 18:25:58 67° WNW 18:31:18 10° NNE
SL-14 R/B 4.5 18:23:06 10° NNE 18:26:19 23° ENE 18:26:27 23° ENE
CENTAUR R/B 3.2 18:18:50 10° NW 18:26:57 82° NE 18:34:46 14° SE
Cosmos 1833 Rocket 3.8 18:23:17 10° N 18:28:04 27° NE 18:30:12 22° E
CSL-04 Rocket 4.1 18:25:57 10° S 18:31:20 64° WSW 18:36:51 10° NNW
Cosmos 1766 3.5 18:29:41 10° SSE 18:33:23 43° E 18:37:10 10° NNE
Okean 2 Rocket 4.0 18:29:25 10° SSW 18:33:46 51° WNW 18:38:09 10° N
YAOGAN 1 4.3 18:30:11 10° SSW 18:34:07 34° W 18:38:05 10° NNW
ATLAS 2AS CENTAUR R/B 3.1 18:26:35 10° SSW 18:34:12 54° ESE 18:41:50 10° NE
Cosmos 1025 Rocket 3.9 18:30:52 10° NNW 18:35:09 53° W 18:39:25 10° S
Cosmos 1634 Rocket 4.2 18:32:23 10° SSE 18:38:10 45° E 18:44:02 10° NNE
ATLAS 3B R/B 3.3 18:32:40 10° NNW 18:39:07 41° NE 18:42:35 25° E
SPOT 3 Rocket 4.3 18:40:10 28° E 18:41:20 31° ENE 18:45:50 10° N
Abrixas rocket 1.6 18:39:13 10° WNW 18:42:04 79° SSW 18:42:11 76° SSE
CREW DRAGON DEMO-1 DEB 2.6 18:40:59 10° WNW 18:44:01 82° SSW 18:44:16 72° SE
Cosmos 1536 Rocket 4.2 18:40:34 10° NNW 18:44:57 56° W 18:49:19 10° S
Cosmos 1125 Rocket 3.8 18:41:18 10° SSW 18:46:35 72° WNW 18:51:56 10° NNE
EP 2 4.5 18:45:01 10° SW 18:48:01 86° NW 18:48:34 56° NNE
Resurs 1-3 4.2 18:48:54 35° ENE 18:49:06 35° ENE 18:53:06 10° N
SJ-6B 2.6 18:48:31 48° SE 18:49:17 62° ENE 18:53:02 10° N
Cosmos 1892 Rocket 4.3 18:47:47 10° N 18:51:25 33° ENE 18:51:25 33° ENE
CZ-4 R/B 4.3 18:48:57 10° SW 18:51:54 18° W 18:54:52 10° NW
Cosmos 2195 Rocket 4.4 18:49:07 10° N 18:55:22 75° E 19:00:07 18° SSE
Cosmos 1627 Rocket 4.5 18:50:35 10° N 18:57:00 70° E 19:01:24 21° SSE
Cosmos 2285 Rocket 4.1 18:50:58 10° SSW 18:57:16 80° WNW 19:03:41 10° NNE
Cosmos 1674 3.3 18:53:33 10° NNW 18:57:19 55° W 19:00:17 15° S
Cosmos 2026 Rocket 4.0 18:51:52 10° N 18:58:15 68° E 19:02:16 24° SSE
Cosmos 1092 Rocket 3.9 18:52:14 10° N 18:58:26 87° E 19:04:17 12° S
FREGAT/IRIS 4.5 19:04:41 21° NNW 19:04:41 21° NNW 19:05:45 10° NNW
MOS 1 Rocket 4.3 18:59:08 10° N 19:03:16 42° WNW 19:07:18 10° SW
Cosmos 1428 Rocket 4.4 19:00:32 10° N 19:06:48 74° E 19:10:06 29° SSE
TSX-5 4.0 19:04:46 10° SSW 19:08:34 80° WNW 19:13:30 10° NNE
ARGOS 4.1 19:04:13 10° S 19:09:21 46° W 19:14:32 10° NNW
CZ-2C R/B 2.7 19:08:02 10° NNE 19:13:39 85° WNW 19:19:16 10° SSW
Cosmos 1340 Rocket 3.5 19:15:11 41° NNE 19:15:11 41° NNE 19:17:55 10° NNE
Cosmos 2279 Rocket 4.0 19:12:59 42° SE 19:14:41 54° E 19:20:46 10° NNE
Cosmos 1733 3.5 19:13:48 29° SSW 19:15:38 64° W 19:19:26 10° N
MOS 1 4.4 19:13:05 24° S 19:16:38 76° WSW 19:22:22 10° NNW
Lacrosse 5 rocket 3.2 19:16:38 10° NW 19:20:14 23° NNE 19:20:43 23° NNE
Cosmos 2082 Rocket 2.8 19:16:02 10° NNW 19:21:16 38° NE 19:21:17 38° NE
Cosmos 2098 Rocket 4.3 19:15:12 10° N 19:21:19 41° ENE 19:21:19 41° ENE
DMSP B5D2-2 4.1 19:18:09 10° NNE 19:23:28 80° WNW 19:28:44 10° SSW
BREEZE-M DEB (TANK) 4.3 19:20:26 10° W 19:24:10 42° SSW 19:27:36 29° SSE
BREEZE-M R/B 3.7 19:16:04 10° W 19:24:11 61° NNW 19:24:25 59° N
OBJECT-B 2.8 19:28:48 26° NNW 19:28:48 26° NNW 19:30:21 10° NNW
Cosmos 2142 Rocket 4.3 19:24:37 26° S 19:28:23 79° E 19:34:36 10° N
Ariane Rocket 3.9 19:28:06 21° SSW 19:31:11 47° W 19:36:06 10° NNW
H-2A R/B 4.4 19:29:17 10° SW 19:33:01 21° W 19:36:49 10° NW
Milstar 3 Cent rocket 4.3 19:30:11 10° SW 19:32:39 14° SSW 19:32:39 14° SSW
USA 234 4.4 19:38:14 27° S 19:38:14 27° S 19:41:14 10° SSW
Terra 4.3 19:42:51 11° NNE 19:42:51 11° NNE 19:43:04 10° NNE
Cosmos 1626 3.7 19:39:08 10° NNW 19:42:02 34° WNW 19:42:02 34° WNW
Okean 1-7 Rocket 4.3 19:38:28 10° N 19:41:51 49° N 19:41:51 49° N
COSMOS 2406 3.4 19:41:39 10° NNW 19:47:17 65° WSW 19:47:56 60° SSW
ISS -1.0 19:46:25 10° NW 19:47:46 19° NW 19:47:46 19° NW
Cosmos 2278 Rocket 2.3 19:45:00 10° SSW 19:51:32 65° NNE 19:56:22 10° NNE
Lacrosse 4 Rocket 3.1 19:50:51 10° NNW 19:52:52 28° NNW 19:52:52 28° NNW
Cosmos 909 Rocket 4.1 19:53:44 10° NNW 19:59:55 67° NE 19:59:55 67° NE
Cosmos 2266 Rocket 4.3 19:55:48 10° N 20:00:33 53° NNE 20:00:33 53° NNE
Resurs 01 Rocket 2.9 20:03:26 38° NW 20:03:26 38° NW 20:06:20 10° NNW
NOSS 3-4 (A) 4.3 19:56:46 10° WSW 20:02:29 47° NW 20:08:39 10° NNE
NOSS 3-4 (C) 4.3 19:56:51 10° WSW 20:02:35 47° NW 20:08:45 10° NNE
Meteor 2-19 Rocket 4.4 19:57:34 10° NNW 20:03:41 76° W 20:03:47 76° WSW
Cosmos 1833 Rocket 3.2 20:06:49 10° NNW 20:11:54 54° W 20:11:54 54° W
Cosmos 2251 Rocket 4.3 20:09:51 10° NNW 20:13:44 49° NNW 20:13:44 49° NNW
ATLAS 2AS CENTAUR R/B 3.8 20:17:46 10° WSW 20:25:25 48° NW 20:32:57 10° NNE
ATLAS 3B R/B 3.1 20:23:20 10° NW 20:29:50 54° WSW 20:29:50 54° WSW
Lacrosse 5 rocket 4.4 20:55:34 10° NW 20:56:20 15° NW 20:56:20 15° NW
Cosmos 2082 Rocket 4.0 21:00:13 10° NW 21:03:07 26° WNW 21:03:07 26° WNW
